User: anonymous   Login
Location: Newark
(52.9300°N, 3.3400°W)
Time: 23:08:41
(UTC+00:00)
Language:

AAUSAT CUBESAT 2 - Orbit

View from above orbital plane
View from above orbital plane
View from above satellite
View from above satellite

Ground track
Ground track

The orbit data is extracted from the following two-line orbital elements,

1 32788U 08021F   21125.40181347  .00001119  00000-0  10575-3 0  9991
2 32788  97.5044 121.8681 0013176  59.4504 300.8016 14.95531263707428
Epoch (UTC): 05 May 2021 09:38:36
Eccentricity: 0.0013176
inclination: 97.5044°
perigee height: 571 km
apogee height: 590 km
right ascension of ascending node: 121.8681°
argument of perigee: 59.4504°
revolutions per day: 14.95531263
mean anomaly at epoch: 300.8016°
orbit number at epoch: 70742

The dashed part of the orbit path shows where the satellite is in the earth's shadow,  

DLR